Temp
14 14 13 13 13 13 14 14 15 15 15 15 16 15 15 15 15 15 15 14 14 14 14 14 14 14 14 14 14 13 13 12 12 12 12 12 11 12 12 12 12 12 12 12 12 12 12 12 12 12 12 12 12 12 12 12 12 12 12 12 12 12 12
14 14 14 13 13 13 13 14 14 15 15 15 15 15 15 15 15 15 14 14 14 14 14 14 14 14 14 13 13 13 13 13 12 12 12 12 12 12 12 12 12 12 12 12 12 12 12 12 12 12 12 12 12 12 12 12 12 12 12 12 12 11 12
14 14 14 13 13 13 13 13 14 14 14 14 14 14 14 14 14 14 14 14 14 14 14 13 13 13 13 13 13 13 13 12 12 12 12 12 12 12 12 12 12 12 12 12 12 12 11 12 12 12 13 12 12 13 12 12 12 12 12 11 11 11 11
14 14 13 13 13 13 13 13 13 13 13 13 13 13 13 13 14 14 14 14 14 14 13 13 13 13 13 13 13 13 13 12 12 12 12 12 12 12 12 12 12 12 12 12 12 12 12 12 12 12 13 13 13 13 13 12 12 12 12 11 11 11 11
13 13 13 13 13 13 13 12 12 13 13 13 13 13 13 13 13 13 13 14 14 13 13 13 13 13 13 13 13 13 13 12 12 12 12 12 12 12 12 12 12 12 12 12 12 12 12 12 12 13 13 13 13 12 13 12 12 12 12 11 11 11 11
13 13 13 13 12 12 12 12 12 12 12 12 12 13 13 13 13 13 13 13 13 13 13 13 13 13 13 12 12 12 12 12 12 12 12 12 12 12 12 12 12 12 12 12 12 12 12 12 12 12 13 13 13 12 12 12 12 12 12 12 12 11 11
13 13 13 12 12 12 12 11 11 12 12 12 12 12 13 13 13 13 13 13 13 13 13 13 13 13 12 12 12 12 12 12 12 12 12 12 12 12 12 12 12 12 12 12 12 12 12 12 12 12 12 12 12 12 11 11 11 11 12 12 12 11 11
13 13 12 12 12 12 11 11 11 11 11 11 12 12 12 12 12 12 13 13 13 13 13 13 13 12 12 12 11 11 11 12 12 12 12 12 12 12 12 12 12 12 12 12 12 12 12 12 12 12 12 12 12 11 11 11 11 11 11 11 11 11 11
12 12 11 11 11 11 11 11 11 11 11 11 12 12 12 12 12 12 12 12 12 12 12 12 12 12 11 11 11 11 11 12 12 12 12 12 12 12 12 12 12 12 12 12 12 12 12 12 12 12 11 12 12 11 11 11 11 11 11 11 11 11 11
11 11 11 11 11 11 11 11 11 11 11 12 12 12 12 12 12 12 12 12 12 12 12 12 11 11 10 10 11 11 11 11 11 12 12 12 12 12 12 12 12 12 12 12 12 12 12 12 12 12 11 11 12 12 12 11 11 11 11 11 11 11 11
11 11 11 11 11 12 12 12 12 12 12 12 12 12 12 12 12 11 12 12 12 12 12 12 11 11 10 10 10 11 11 11 11 12 12 12 12 12 12 12 12 12 12 12 12 12 12 12 12 12 12 11 11 12 12 12 12 12 12 12 12 12 12
11 11 11 12 12 12 13 12 12 12 12 12 12 12 12 12 12 12 12 12 12 12 12 12 12 11 11 11 11 11 11 12 12 12 12 12 12 12 12 12 12 12 12 12 12 12 12 12 12 12 12 12 11 11 12 12 13 13 13 12 12 12 12
11 11 12 12 12 12 13 12 12 12 12 12 12 12 12 12 12 12 12 12 12 12 12 12 12 12 12 12 12 11 12 12 12 12 12 12 12 12 12 12 12 12 12 12 12 12 12 12 12 12 12 12 12 11 11 12 12 13 13 13 13 12 12
11 11 12 12 12 12 12 12 12 12 12 12 12 12 12 12 11 11 12 12 12 12 12 12 12 12 12 12 12 12 12 12 12 12 12 12 12 12 12 11 12 12 12 12 12 12 12 12 12 12 12 12 11 12 11 11 12 12 12 13 12 12 12
11 12 12 12 12 12 12 12 12 12 12 12 12 12 12 12 11 11 11 12 12 12 12 12 12 12 12 12 12 12 12 12 12 12 12 12 12 12 12 12 12 12 12 12 12 12 12 12 12 12 12 12 11 12 11 11 11 12 12 12 12 12 12
11 11 12 12 12 12 12 12 12 12 12 12 12 12 12 11 11 11 11 11 11 11 12 12 12 12 12 11 11 12 12 12 12 12 12 12 12 12 12 12 12 12 12 11 11 12 12 12 12 12 12 12 12 11 12 12 12 12 11 12 12 12 12
10 11 11 12 12 12 12 12 12 12 12 12 12 12 11 11 11 11 11 11 11 11 11 12 12 12 12 12 11 12 12 12 12 12 12 12 12 12 11 12 12 12 11 11 11 11 12 12 12 12 12 12 12 12 12 12 12 12 12 11 12 11 11
11 11 11 12 12 12 12 12 12 12 12 12 12 12 11 11 11 11 11 11 11 11 11 12 12 12 12 12 12 12 12 12 12 12 12 12 12 12 12 12 12 12 11 11 12 12 12 12 12 12 12 12 12 12 12 12 12 12 12 12 12 12 11
12 12 12 12 12 12 12 12 12 12 12 12 12 12 11 11 11 11 11 11 11 11 12 12 12 12 12 12 12 12 12 12 12 12 12 12 12 12 12 12 11 11 11 11 12 12 12 12 12 12 12 12 12 12 12 12 12 12 12 12 12 12 11
12 12 12 12 12 12 12 12 12 12 12 12 12 11 11 10 10 11 11 11 11 11 12 12 12 12 12 12 12 12 12 12 12 12 12 12 12 11 11 11 11 11 11 11 12 12 12 12 12 12 12 12 12 12 12 12 12 12 12 11 11 11 11
12 12 11 12 11 11 11 11 11 11 11 10 10 10 10 10 10 11 11 11 11 11 11 12 12 12 12 12 11 12 12 12 12 12 12 12 11 11 11 11 11 11 11 11 11 11 11 12 12 12 12 12 12 12 12 12 11 11 11 11 11 11 11
11 11 11 11 11 11 11 10 10 10 10 10 10 10 10 11 11 11 11 11 11 11 11 11 11 12 12 12 12 12 12 12 12 12 12 12 11 11 11 11 11 11 11 12 11 11 11 11 12 12 12 12 12 12 12 12 11 11 11 10 11 11 11
11 11 11 10 10 10 10 10 10 10 10 10 10 10 10 10 11 11 11 11 11 11 11 11 11 11 11 11 11 12 12 12 12 12 12 12 11 11 11 11 11 11 12 12 12 11 12 12 12 11 11 11 11 11 11 11 11 11 11 11 11 11 10
10 10 10 10 10 10 10 10 10 10 10 10 10 9 9 9 10 10 10 10 10 10 10 10 10 10 11 11 11 11 12 12 12 12 12 12 11 11 11 11 11 11 12 12 12 11 11 12 12 11 11 11 11 11 11 11 11 11 11 11 11 11 11
10 10 10 10 10 10 10 10 10 10 10 10 9 9 8 9 9 9 9 9 10 10 10 10 10 10 10 11 11 11 11 11 11 11 11 11 11 11 11 11 11 11 11 12 12 11 11 11 11 12 11 11 11 11 11 11 11 11 11 11 11 11 11
10 9 9 9 10 10 10 10 10 9 10 10 9 9 8 8 9 9 9 9 9 10 10 10 10 10 10 10 10 11 11 11 11 11 11 11 11 11 11 11 11 11 11 11 11 11 11 11 11 11 11 11 11 11 11 11 11 11 11 11 11 11 11
9 9 9 9 9 9 9 9 9 9 9 10 10 9 9 9 9 9 9 9 9 9 10 10 10 10 10 10 10 10 11 11 11 11 11 11 11 11 11 10 10 10 11 11 11 11 11 10 11 11 11 11 10 10 11 10 10 10 10 10 10 10 10
9 9 9 9 9 9 9 9 8 9 9 9 9 9 9 9 9 9 9 9 9 9 10 10 10 10 10 10 10 10 10 11 10 10 10 10 10 10 10 10 10 10 10 10 10 11 10 10 10 10 11 10 10 10 11 10 10 10 10 10 10 10 10
9 9 9 9 9 9 8 8 8 8 9 9 8 8 9 9 9 9 9 9 9 9 9 9 9 10 10 10 10 10 10 10 10 10 10 10 10 9 9 10 10 10 10 10 10 10 10 10 10 10 10 10 10 10 10 10 10 10 10 10 10 10 10
8 8 8 8 8 8 8 8 8 8 8 9 8 8 8 8 8 8 8 8 8 8 8 8 8 9 9 9 9 10 10 10 10 10 9 9 9 8 8 9 9 9 9 9 9 9 9 9 9 9 9 9 9 9 9 9 9 9 10 10 9 9 9
8 8 7 7 8 8 8 8 8 8 8 8 8 7 7 7 7 7 7 7 7 7 7 7 7 8 8 8 9 9 9 9 9 9 9 8 8 8 8 8 8 8 9 9 8 8 8 8 8 8 8 9 9 8 8 8 8 8 8 9 9 8 8
8 8 7 7 7 7 7 7 8 8 8 8 7 7 6 7 7 6 6 6 6 6 6 6 6 7 7 8 8 8 9 9 9 8 8 8 8 8 8 8 8 8 8 8 8 7 8 8 8 7 8 8 8 7 7 7 7 8 8 8 8 8 8
7 7 7 7 7 7 7 7 7 7 7 7 7 6 6 6 6 6 5 5 5 5 5 6 6 6 7 7 7 8 8 8 8 8 7 8 7 7 7 7 7 7 7 7 7 7 7 7 7 7 7 8 8 7 6 7 7 7 7 7 7 8 8
6 6 6 6 6 6 6 6 6 7 7 7 7 7 6 6 6 5 5 5 5 5 5 6 6 6 6 7 7 7 7 7 7 7 7 7 6 6 6 6 6 6 7 7 7 7 7 7 7 8 8 7 7 6 7 7 7 7 7 7 7 7 8
5 5 5 5 5 6 6 6 6 6 6 6 7 7 6 6 6 5 5 5 5 5 5 5 6 6 6 6 6 6 6 6 6 6 6 6 5 5 5 5 5 6 6 7 7 7 7 7 7 7 7 6 6 6 7 7 7 7 7 7 7 7 7
4 4 4 5 5 5 5 5 5 6 6 6 6 6 5 5 5 5 5 5 5 5 5 5 5 5 5 5 5 6 6 5 6 6 6 6 5 5 4 4 4 5 5 6 6 6 6 6 6 5 5 5 5 5 6 6 6 6 6 6 7 7 6
4 4 4 5 5 5 5 5 5 5 5 5 5 5 5 5 5 5 4 4 4 4 4 4 4 4 4 5 5 5 5 5 5 5 5 5 4 4 4 4 4 4 5 5 5 5 5 5 4 4 4 4 4 5 5 5 5 5 6 6 6 6 5
Height
1524 1525 1525 1525 1525 1524 1523 1523 1523 1522 1522 1522 1521 1521 1520 1520 1519 1518 1517 1516 1516 1516 1515 1515 1515 1515 1515 1515 1515 1515 1515 1516 1516 1515 1515 1515 1515 1515 1515 1515 1515 1516 1516 1516 1518 1519 1520 1519 1519 1520 1521 1522 1523 1524 1526 1528 1530 1531 1533 1535 1536 1537 1538
1524 1524 1524 1524 1524 1523 1522 1522 1522 1521 1521 1521 1520 1519 1519 1518 1518 1517 1516 1515 1514 1514 1513 1513 1513 1512 1512 1512 1512 1512 1512 1512 1512 1513 1512 1511 1511 1511 1512 1512 1512 1513 1514 1514 1515 1516 1517 1517 1517 1517 1518 1520 1521 1522 1524 1526 1528 1530 1531 1533 1534 1536 1537
1523 1523 1523 1523 1523 1523 1522 1521 1521 1520 1520 1519 1518 1517 1517 1516 1516 1515 1514 1513 1512 1512 1511 1511 1510 1510 1509 1509 1509 1509 1509 1508 1508 1508 1508 1507 1507 1508 1509 1509 1509 1510 1511 1511 1511 1513 1514 1515 1515 1515 1516 1517 1518 1520 1522 1524 1526 1528 1530 1531 1533 1534 1535
1522 1522 1522 1522 1522 1522 1521 1520 1519 1519 1518 1517 1516 1515 1515 1514 1513 1513 1511 1511 1510 1509 1509 1508 1507 1507 1506 1505 1505 1505 1505 1505 1505 1505 1504 1504 1504 1504 1506 1506 1506 1506 1507 1507 1508 1509 1511 1512 1512 1513 1514 1515 1516 1518 1520 1522 1524 1526 1528 1529 1530 1532 1534
1521 1521 1521 1521 1521 1521 1520 1520 1518 1518 1517 1516 1515 1514 1514 1513 1512 1511 1510 1509 1508 1507 1506 1505 1505 1504 1503 1502 1501 1501 1501 1500 1501 1501 1501 1501 1501 1501 1502 1502 1502 1502 1503 1503 1505 1506 1508 1509 1510 1511 1512 1513 1515 1516 1518 1520 1522 1524 1525 1527 1528 1530 1532
1520 1521 1521 1521 1520 1519 1519 1518 1518 1517 1516 1515 1514 1513 1512 1511 1510 1509 1508 1507 1506 1505 1504 1502 1502 1501 1499 1498 1497 1497 1497 1496 1497 1498 1498 1498 1498 1499 1498 1499 1499 1498 1499 1501 1502 1503 1504 1507 1509 1509 1510 1511 1513 1514 1516 1518 1520 1521 1523 1524 1526 1528 1530
1520 1520 1520 1519 1519 1518 1518 1517 1516 1515 1514 1513 1512 1511 1510 1509 1508 1507 1505 1504 1503 1502 1501 1499 1498 1497 1495 1494 1493 1493 1493 1493 1493 1494 1494 1494 1495 1496 1495 1495 1495 1494 1496 1497 1498 1499 1501 1503 1505 1506 1508 1510 1511 1512 1514 1516 1517 1519 1520 1521 1524 1526 1528
1519 1519 1519 1518 1518 1517 1516 1515 1514 1513 1512 1511 1510 1509 1508 1507 1505 1504 1503 1502 1500 1499 1498 1496 1495 1493 1491 1490 1490 1489 1489 1489 1490 1490 1490 1491 1491 1492 1491 1491 1491 1491 1492 1494 1495 1496 1498 1499 1501 1504 1506 1507 1509 1510 1512 1514 1515 1516 1517 1519 1522 1523 1525
1518 1518 1517 1517 1516 1515 1514 1513 1512 1511 1510 1509 1508 1507 1506 1504 1503 1502 1500 1499 1498 1497 1495 1493 1491 1489 1488 1487 1486 1486 1486 1486 1487 1487 1487 1488 1488 1488 1488 1488 1488 1488 1490 1492 1493 1494 1495 1497 1498 1501 1503 1505 1506 1508 1510 1512 1512 1514 1515 1517 1519 1521 1523
1516 1516 1515 1515 1514 1513 1512 1511 1510 1509 1508 1507 1506 1504 1503 1502 1501 1499 1498 1497 1496 1494 1492 1490 1488 1487 1486 1485 1484 1483 1483 1483 1484 1484 1485 1485 1485 1485 1485 1486 1487 1487 1488 1489 1491 1492 1493 1495 1496 1498 1501 1503 1505 1506 1507 1509 1510 1511 1512 1514 1516 1518 1521
1515 1514 1514 1513 1512 1511 1510 1509 1508 1507 1506 1505 1504 1502 1501 1500 1499 1497 1496 1495 1493 1492 1490 1488 1487 1485 1484 1483 1482 1481 1481 1481 1481 1482 1482 1482 1482 1483 1483 1484 1486 1486 1487 1488 1489 1490 1492 1493 1494 1496 1498 1501 1504 1505 1505 1507 1507 1508 1510 1512 1513 1516 1518
1513 1512 1512 1511 1510 1509 1508 1507 1506 1505 1504 1503 1502 1501 1500 1498 1497 1495 1494 1493 1491 1490 1489 1487 1485 1484 1482 1481 1480 1479 1479 1480 1480 1480 1480 1480 1480 1481 1482 1483 1484 1485 1486 1487 1488 1489 1490 1491 1493 1495 1497 1499 1501 1503 1504 1506 1506 1507 1508 1510 1511 1514 1516
1511 1511 1510 1509 1508 1507 1506 1506 1505 1504 1503 1502 1501 1499 1498 1496 1494 1493 1492 1491 1490 1488 1487 1485 1484 1482 1481 1480 1479 1478 1478 1478 1478 1478 1478 1479 1479 1480 1480 1481 1482 1483 1484 1485 1486 1487 1488 1490 1491 1493 1494 1497 1499 1501 1503 1504 1505 1506 1508 1509 1511 1513 1515
1510 1509 1509 1508 1507 1506 1506 1505 1504 1503 1502 1500 1499 1498 1496 1494 1493 1492 1491 1489 1488 1486 1485 1483 1482 1481 1479 1478 1477 1476 1476 1476 1476 1476 1477 1478 1479 1479 1479 1479 1480 1481 1482 1483 1484 1485 1487 1488 1489 1491 1493 1494 1496 1498 1500 1503 1504 1505 1507 1508 1510 1512 1514
1509 1508 1508 1507 1506 1505 1505 1504 1503 1502 1501 1499 1498 1496 1495 1493 1492 1490 1489 1488 1486 1485 1483 1482 1480 1479 1478 1476 1475 1474 1474 1474 1474 1474 1475 1476 1477 1478 1478 1478 1477 1478 1480 1481 1482 1483 1485 1486 1487 1489 1491 1493 1495 1496 1498 1501 1503 1504 1505 1506 1508 1510 1511
1508 1508 1507 1506 1505 1505 1504 1503 1502 1501 1500 1498 1497 1495 1494 1492 1490 1489 1488 1486 1484 1483 1482 1480 1479 1478 1476 1475 1474 1473 1472 1472 1472 1473 1473 1474 1475 1476 1477 1476 1476 1477 1478 1480 1481 1482 1483 1484 1486 1488 1489 1491 1493 1495 1497 1500 1502 1503 1504 1505 1506 1507 1509
1508 1507 1506 1506 1505 1504 1504 1503 1501 1500 1499 1497 1496 1494 1493 1491 1490 1488 1486 1485 1483 1482 1481 1479 1478 1477 1476 1475 1474 1472 1471 1471 1472 1472 1472 1472 1474 1475 1475 1475 1474 1476 1477 1479 1480 1481 1482 1483 1485 1486 1488 1489 1492 1493 1495 1497 1499 1500 1501 1503 1504 1506 1507
1507 1507 1506 1506 1505 1504 1503 1502 1501 1499 1498 1496 1495 1493 1492 1490 1489 1487 1485 1484 1482 1481 1480 1479 1478 1477 1476 1474 1473 1472 1471 1471 1471 1471 1471 1471 1473 1474 1474 1474 1475 1475 1477 1478 1479 1480 1481 1482 1483 1485 1487 1488 1490 1492 1494 1495 1497 1498 1499 1500 1502 1504 1506
1507 1507 1507 1506 1505 1504 1503 1501 1500 1498 1497 1496 1494 1492 1491 1489 1488 1486 1485 1483 1482 1481 1480 1479 1478 1477 1476 1474 1473 1472 1471 1471 1471 1471 1471 1471 1472 1473 1473 1474 1475 1476 1476 1477 1478 1479 1481 1481 1482 1483 1485 1487 1488 1490 1491 1493 1494 1495 1497 1498 1500 1502 1503
1508 1508 1507 1506 1505 1504 1502 1501 1499 1497 1496 1495 1493 1491 1490 1489 1487 1486 1485 1483 1482 1481 1480 1479 1478 1477 1476 1475 1474 1473 1472 1471 1471 1471 1471 1471 1472 1472 1473 1474 1475 1475 1476 1477 1478 1479 1480 1480 1481 1482 1484 1485 1487 1488 1489 1491 1492 1493 1495 1497 1499 1500 1502
1508 1508 1508 1506 1505 1504 1502 1500 1498 1497 1496 1494 1492 1491 1489 1488 1487 1486 1485 1484 1482 1481 1480 1479 1478 1477 1476 1475 1474 1473 1472 1472 1472 1471 1471 1472 1472 1473 1473 1474 1475 1475 1476 1477 1477 1478 1479 1479 1480 1480 1482 1483 1485 1487 1488 1489 1490 1491 1493 1495 1496 1498 1500
1509 1509 1508 1507 1505 1503 1502 1500 1499 1497 1496 1494 1492 1491 1489 1488 1487 1486 1485 1484 1483 1482 1480 1480 1479 1478 1477 1476 1475 1474 1473 1472 1471 1471 1471 1472 1472 1472 1473 1473 1474 1475 1475 1476 1476 1477 1477 1477 1478 1479 1480 1482 1483 1485 1486 1488 1488 1490 1491 1492 1494 1495 1497
1510 1509 1508 1507 1505 1504 1503 1501 1500 1498 1496 1494 1492 1491 1489 1488 1487 1486 1485 1484 1483 1482 1481 1480 1480 1479 1478 1477 1476 1475 1474 1473 1472 1471 1471 1472 1472 1472 1472 1473 1474 1475 1475 1475 1476 1476 1476 1476 1477 1477 1479 1480 1482 1483 1484 1486 1487 1488 1489 1490 1491 1492 1494
1510 1510 1509 1508 1506 1505 1504 1502 1501 1500 1497 1495 1493 1491 1490 1488 1487 1486 1486 1485 1485 1484 1483 1482 1481 1481 1480 1479 1478 1476 1475 1474 1473 1472 1472 1472 1472 1472 1473 1473 1473 1474 1474 1475 1475 1475 1475 1475 1476 1477 1478 1479 1481 1482 1483 1484 1485 1487 1488 1488 1489 1490 1491
1511 1510 1509 1508 1507 1506 1505 1503 1502 1501 1499 1497 1495 1492 1491 1489 1488 1488 1487 1487 1486 1486 1485 1483 1482 1482 1481 1480 1479 1477 1476 1475 1474 1473 1473 1473 1473 1473 1473 1473 1472 1473 1474 1474 1474 1474 1474 1475 1476 1476 1477 1478 1479 1480 1481 1483 1484 1485 1486 1487 1488 1489 1489
1511 1511 1510 1509 1508 1507 1506 1505 1503 1501 1500 1499 1497 1494 1493 1491 1490 1490 1489 1489 1488 1487 1487 1485 1484 1483 1482 1481 1480 1478 1477 1476 1475 1474 1474 1473 1473 1473 1473 1473 1473 1473 1473 1473 1473 1473 1473 1474 1475 1475 1476 1477 1478 1479 1479 1481 1482 1483 1485 1486 1487 1487 1487
1512 1511 1510 1510 1509 1508 1507 1506 1504 1503 1502 1500 1498 1496 1495 1494 1493 1492 1492 1492 1490 1489 1488 1487 1487 1485 1484 1483 1481 1480 1479 1477 1476 1475 1474 1474 1474 1473 1473 1473 1473 1473 1473 1473 1473 1473 1473 1474 1474 1474 1475 1476 1477 1478 1478 1479 1481 1482 1484 1485 1486 1486 1487
1512 1512 1511 1511 1510 1509 1508 1507 1506 1504 1503 1502 1500 1499 1497 1496 1496 1495 1495 1494 1493 1491 1490 1490 1489 1488 1486 1485 1483 1482 1480 1479 1477 1476 1475 1474 1474 1474 1474 1474 1474 1474 1474 1473 1473 1473 1473 1474 1474 1474 1475 1475 1476 1477 1478 1479 1480 1481 1482 1484 1485 1486 1487
1513 1513 1512 1512 1511 1511 1510 1508 1507 1506 1505 1503 1502 1501 1500 1499 1498 1498 1498 1497 1496 1494 1493 1493 1492 1490 1489 1487 1486 1484 1482 1480 1479 1477 1476 1476 1476 1476 1476 1476 1475 1475 1475 1474 1474 1474 1474 1474 1474 1474 1475 1475 1476 1477 1478 1479 1480 1481 1482 1483 1484 1485 1486
1513 1513 1513 1513 1513 1512 1511 1510 1509 1508 1507 1505 1504 1502 1502 1501 1501 1500 1500 1499 1498 1496 1495 1495 1494 1493 1492 1490 1488 1486 1484 1482 1481 1479 1478 1478 1478 1478 1477 1477 1477 1477 1476 1476 1476 1476 1476 1476 1476 1475 1475 1476 1477 1478 1479 1480 1480 1481 1481 1482 1483 1484 1485
1514 1514 1514 1514 1514 1513 1512 1511 1510 1510 1509 1507 1505 1504 1504 1503 1503 1502 1502 1501 1500 1499 1498 1497 1497 1496 1494 1492 1490 1488 1486 1485 1483 1482 1481 1481 1481 1480 1480 1479 1480 1479 1479 1479 1479 1479 1478 1478 1478 1477 1477 1478 1478 1479 1481 1482 1482 1482 1482 1483 1484 1485 1486
1515 1515 1515 1515 1515 1514 1514 1513 1512 1511 1510 1509 1507 1506 1506 1505 1504 1504 1504 1504 1503 1502 1501 1500 1499 1498 1497 1495 1493 1492 1490 1488 1486 1485 1485 1484 1484 1483 1482 1481 1482 1482 1483 1483 1483 1483 1482 1482 1482 1482 1482 1482 1481 1482 1484 1485 1485 1485 1485 1485 1486 1487 1488
1516 1516 1517 1517 1516 1516 1515 1515 1514 1513 1512 1510 1509 1508 1508 1507 1506 1506 1506 1506 1505 1505 1504 1503 1502 1501 1500 1498 1497 1496 1494 1492 1491 1490 1489 1488 1487 1486 1485 1485 1485 1486 1487 1486 1487 1487 1487 1487 1487 1487 1487 1486 1485 1487 1488 1489 1489 1489 1489 1489 1489 1490 1490
1517 1518 1518 1518 1517 1517 1517 1517 1516 1515 1513 1512 1511 1510 1510 1509 1508 1508 1508 1508 1508 1507 1507 1506 1505 1504 1503 1502 1501 1499 1497 1496 1495 1494 1493 1491 1491 1490 1489 1489 1490 1490 1490 1490 1490 1490 1490 1490 1490 1490 1489 1489 1490 1491 1493 1492 1492 1492 1493 1493 1493 1492 1493
1518 1519 1519 1519 1519 1519 1519 1519 1518 1517 1515 1514 1513 1512 1511 1511 1510 1510 1510 1510 1510 1510 1510 1509 1508 1507 1506 1505 1504 1502 1501 1500 1499 1498 1496 1495 1494 1494 1494 1494 1494 1494 1494 1493 1492 1492 1492 1492 1492 1492 1492 1493 1493 1495 1495 1495 1495 1495 1495 1495 1495 1495 1496
1520 1520 1521 1521 1521 1520 1520 1520 1520 1519 1518 1516 1515 1514 1514 1513 1513 1512 1512 1512 1512 1512 1512 1511 1511 1510 1509 1508 1507 1505 1504 1503 1503 1501 1499 1498 1498 1498 1498 1498 1498 1497 1497 1496 1495 1495 1494 1494 1494 1494 1495 1495 1495 1496 1496 1496 1496 1497 1497 1497 1497 1497 1498
1522 1522 1522 1523 1523 1522 1522 1522 1522 1521 1520 1519 1517 1516 1516 1516 1515 1514 1514 1514 1514 1514 1514 1514 1513 1512 1512 1511 1510 1508 1507 1506 1505 1504 1502 1502 1502 1502 1502 1502 1501 1501 1500 1499 1499 1498 1498 1497 1498 1498 1498 1498 1498 1498 1497 1497 1498 1498 1498 1498 1498 1499 1499
Wind_Speed
16 16 15 14 14 15 17 16 16 16 16 17 18 17 18 18 19 20 21 22 22 22 22 23 24 24 24 24 24 24 24 23 23 25 25 24 24 26 27 28 27 25 26 26 25 22 20 22 24 27 28 28 29 28 25 23 20 19 17 17 17 17 17
14 14 14 14 14 15 17 18 18 18 18 18 19 19 19 19 19 20 22 23 23 23 24 25 26 26 27 27 27 26 26 26 25 24 25 25 26 26 27 28 27 28 28 27 26 24 24 23 23 26 29 29 29 27 26 24 22 20 19 17 17 17 18
12 12 14 15 16 17 18 20 21 22 22 21 22 23 22 22 21 22 23 23 23 23 24 25 26 27 28 29 29 29 28 28 28 26 25 26 27 26 27 28 28 29 29 28 28 27 27 26 24 25 28 30 30 28 27 26 23 23 21 19 19 19 20
10 11 13 14 16 17 18 20 21 22 22 22 23 24 24 23 22 22 23 23 24 24 24 24 25 26 27 28 29 30 31 31 30 29 27 27 27 27 28 30 30 30 29 28 28 29 30 29 27 26 26 28 30 29 28 26 25 25 23 22 22 21 21
11 12 14 15 17 18 19 19 19 20 20 20 22 24 24 23 23 23 23 23 24 25 25 24 25 25 27 28 29 30 32 32 32 30 29 29 28 28 28 30 31 31 30 27 26 27 30 31 29 28 26 25 28 30 28 26 26 26 25 24 23 23 22
13 14 16 18 19 20 21 20 19 19 20 21 22 24 24 24 24 23 22 23 23 24 25 26 26 27 28 28 29 30 31 32 32 31 31 31 29 28 29 29 29 30 28 25 24 26 28 30 30 29 27 24 25 28 28 27 27 26 26 25 24 23 23
14 16 18 19 20 21 22 21 21 21 21 22 22 23 24 23 23 23 22 23 24 25 26 27 29 29 29 28 28 28 29 29 29 29 30 30 28 27 28 28 28 29 26 22 22 24 26 29 31 30 28 25 23 24 25 26 26 26 26 26 25 24 23
17 20 21 21 21 22 22 22 22 22 22 21 22 23 23 23 23 23 23 24 26 27 28 29 30 30 28 27 26 26 27 27 27 28 28 28 27 26 27 27 27 26 21 18 20 22 24 27 29 29 29 27 23 22 24 25 26 27 26 25 26 26 25
20 22 22 22 22 22 22 23 22 22 22 21 22 23 24 25 25 24 25 26 26 27 27 27 27 27 25 23 23 23 24 25 25 25 25 26 26 25 25 25 24 22 17 16 18 19 21 25 27 28 29 29 26 22 22 24 25 27 28 26 26 27 26
22 22 22 22 22 22 22 23 23 23 23 23 24 25 25 24 24 24 25 25 25 25 25 24 24 23 21 20 19 20 21 21 21 21 22 24 24 24 24 21 20 19 15 14 16 17 19 22 24 27 28 29 26 23 22 23 24 26 28 28 28 28 27
21 21 21 21 22 22 22 23 24 24 23 23 22 21 20 20 21 22 23 23 22 22 22 21 20 20 19 18 18 18 18 16 17 19 21 23 22 23 22 19 18 18 16 14 15 16 17 19 20 25 27 26 25 24 23 23 24 25 27 28 28 27 28
19 19 19 19 20 20 20 21 21 20 19 17 17 16 17 19 20 21 21 21 21 20 21 20 19 18 18 18 17 17 16 15 16 18 20 20 20 22 21 18 18 19 17 15 15 15 17 19 19 22 26 26 25 25 26 25 24 23 24 27 27 26 27
16 16 16 16 16 16 16 16 16 15 14 14 15 16 18 20 21 21 20 20 19 19 20 19 19 18 18 18 17 16 15 14 16 18 18 19 19 20 20 19 19 19 18 17 16 17 17 19 20 21 23 25 25 25 26 25 24 22 21 23 25 26 26
13 13 13 13 14 14 13 13 14 14 14 15 16 17 18 20 21 20 19 19 19 18 18 18 18 18 18 17 17 16 15 14 15 16 17 18 19 21 21 21 19 18 18 18 17 18 18 18 19 20 21 23 24 24 25 26 25 23 21 21 23 25 25
11 11 11 12 13 12 12 12 13 14 15 16 17 17 18 19 19 18 17 17 18 18 17 17 17 17 17 16 15 15 15 14 15 16 16 17 19 21 22 21 19 17 17 18 17 17 18 17 19 19 19 21 22 23 24 25 25 24 23 21 22 25 26
10 11 12 12 11 11 11 12 13 15 16 16 16 16 17 18 19 17 16 15 16 16 16 16 16 16 15 13 12 13 13 13 13 14 15 16 18 20 21 20 18 17 17 17 17 17 17 17 18 18 19 21 22 23 23 24 23 23 23 21 22 26 27
8 10 11 10 9 9 10 12 13 15 15 15 14 14 15 16 16 16 15 14 14 14 14 14 15 14 13 11 10 10 10 11 11 11 12 14 16 18 19 19 19 17 17 17 17 17 17 17 17 17 18 19 21 22 22 23 22 22 23 21 22 26 27
8 8 8 7 7 8 10 12 13 15 14 13 13 12 13 14 14 14 14 14 14 13 13 13 13 12 12 10 9 9 9 9 9 9 9 10 11 12 14 16 17 16 16 17 16 16 16 16 17 17 17 18 20 21 21 23 22 22 23 22 22 26 27
5 5 5 5 7 9 11 12 13 14 13 12 12 12 12 12 13 14 14 14 14 13 12 12 12 11 10 10 9 8 8 8 8 8 7 7 8 10 11 12 12 13 13 13 13 14 14 16 17 17 17 18 20 21 22 22 22 23 24 24 23 26 29
1 2 3 6 8 10 11 12 12 12 12 12 11 12 12 11 12 13 14 13 13 13 12 12 12 10 9 9 8 8 7 6 6 6 6 6 7 8 9 10 11 11 11 10 11 12 14 16 18 19 19 19 20 22 22 21 22 24 25 26 26 27 28
2 1 4 6 8 9 10 11 11 11 12 12 12 12 12 11 11 12 13 12 12 12 12 11 10 8 8 8 8 8 7 6 5 5 5 6 7 8 9 10 11 12 11 10 10 11 12 15 17 19 19 20 20 21 21 20 22 24 26 28 27 27 28
3 3 4 6 8 10 12 13 13 13 13 12 12 12 11 10 10 11 11 10 10 10 11 10 8 8 8 9 9 9 8 7 6 6 6 6 7 8 8 10 11 11 11 11 10 10 11 13 15 16 17 19 20 21 20 20 22 24 27 28 27 27 28
4 4 7 9 11 13 13 13 13 13 14 14 12 10 9 8 8 8 9 9 8 9 11 11 11 11 11 11 11 10 9 9 7 6 6 6 6 6 7 9 10 10 10 10 10 11 11 13 13 14 15 16 17 18 19 20 22 23 26 28 28 28 29
6 8 10 12 13 13 13 13 14 16 18 19 17 13 10 8 7 8 10 10 11 12 14 15 15 14 13 12 12 11 10 10 8 7 7 7 6 6 6 7 8 8 7 7 7 9 12 13 12 13 15 15 14 15 17 18 20 22 25 27 29 29 30
9 11 12 13 13 13 13 13 15 17 20 22 22 20 16 14 12 13 13 13 13 14 15 16 16 15 14 14 13 12 11 10 9 8 8 8 7 6 6 6 6 5 4 4 6 8 10 10 10 11 13 13 13 14 15 17 18 20 22 25 28 29 32
12 12 12 12 13 13 13 14 16 18 19 20 22 24 22 20 17 15 14 13 15 16 17 17 17 16 16 15 13 12 11 10 9 8 8 7 7 6 6 6 5 4 2 3 6 7 8 8 9 10 11 12 13 15 16 17 18 19 20 22 25 28 31
11 11 11 12 13 13 14 14 15 16 16 17 20 23 24 23 22 20 18 18 20 22 21 21 21 21 21 20 19 17 15 14 12 10 8 7 7 7 8 8 8 6 5 4 5 7 7 7 8 10 11 12 13 14 15 16 17 18 20 21 23 26 28
9 10 11 12 12 13 13 13 14 14 15 16 18 20 21 22 23 23 23 23 23 25 24 22 22 22 22 22 22 21 21 21 21 20 17 12 10 8 9 10 9 9 8 6 5 5 5 7 8 9 10 10 11 11 13 14 14 16 18 20 21 22 25
8 10 12 12 12 13 12 13 13 13 13 15 17 18 19 21 22 23 23 23 23 24 24 21 20 20 19 18 18 18 19 20 22 24 24 19 14 11 12 13 12 12 10 8 7 6 4 5 6 7 9 9 9 10 10 10 11 12 13 15 16 19 23
9 13 13 12 12 12 12 12 12 12 12 13 15 17 19 20 21 21 21 22 22 23 22 21 20 19 19 18 17 17 18 18 20 23 24 22 18 15 16 17 17 15 13 12 12 11 10 7 2 4 7 9 9 8 6 6 6 8 9 10 12 15 19
11 13 13 12 12 12 12 12 12 11 10 11 15 18 18 19 19 19 20 20 20 21 21 21 20 19 19 19 20 20 21 21 22 25 27 27 26 25 26 27 27 24 21 19 16 15 14 12 4 7 8 9 10 10 11 11 10 10 11 11 11 11 13
11 13 13 12 12 12 13 13 12 12 11 12 15 17 17 18 19 19 20 20 20 20 21 22 21 21 21 21 21 22 23 25 26 28 30 31 30 30 30 30 29 26 24 22 20 19 19 17 13 14 12 10 12 14 14 12 10 11 12 12 12 10 9
11 14 14 13 13 13 14 13 13 13 13 14 15 15 16 16 18 19 20 20 21 21 22 22 22 21 21 21 21 21 21 24 26 27 27 28 29 29 29 28 25 22 21 22 22 21 20 19 18 18 18 17 19 18 14 11 10 9 9 10 11 10 9
13 15 15 13 13 14 14 14 14 15 16 16 16 16 17 17 18 20 21 21 22 22 22 21 21 20 20 20 20 20 20 23 23 23 24 26 26 26 26 24 22 19 18 20 20 20 20 19 19 20 21 22 21 17 14 14 13 11 9 9 9 8 7
15 16 15 13 13 14 14 13 14 15 16 16 16 17 18 19 19 20 21 21 21 21 21 20 20 19 19 19 19 20 21 22 21 21 22 24 25 25 24 22 21 18 17 17 17 18 19 18 19 20 20 19 17 15 15 16 14 13 13 12 10 10 9
17 16 15 13 13 14 14 13 13 14 15 15 16 18 19 19 19 20 21 21 21 20 21 21 21 20 20 20 20 20 21 21 20 20 22 23 23 23 22 21 20 18 16 16 16 17 17 17 18 18 17 16 15 15 15 15 14 15 15 14 13 13 13
16 15 14 13 13 14 15 14 14 14 15 15 17 19 20 20 20 21 22 23 23 23 23 23 23 23 23 23 23 22 22 21 20 20 22 22 21 20 19 18 18 17 16 16 16 16 17 17 17 17 16 15 14 14 14 14 14 14 14 14 14 14 14
Wind_Direction
282 285 285 282 280 280 279 280 281 281 282 282 281 282 282 282 282 281 281 282 281 281 281 281 280 281 282 281 281 278 277 274 271 272 274 272 268 266 265 262 257 251 250 252 245 237 237 235 231 229 228 229 227 223 221 219 219 221 222 223 225 224 224
280 284 283 280 276 278 282 284 283 282 283 281 282 285 284 285 284 281 281 282 282 281 280 280 279 278 278 279 280 278 276 274 272 272 272 272 268 265 265 262 259 254 250 250 245 238 238 239 235 231 225 224 227 226 221 219 220 220 221 222 223 224 224
273 277 279 280 279 281 284 285 284 284 286 285 285 287 288 289 287 285 285 285 285 284 282 281 280 278 276 276 277 276 275 274 273 271 268 267 266 264 265 264 260 254 250 247 242 237 236 236 237 238 231 223 224 225 220 219 221 218 218 220 219 220 222
262 270 276 279 279 280 281 282 284 284 286 288 288 289 291 293 292 289 288 289 289 288 287 286 284 282 279 276 275 273 272 271 271 270 268 265 264 261 259 261 260 256 253 252 250 245 240 236 233 236 235 228 226 227 223 222 222 220 218 218 217 215 218
263 270 275 278 279 279 279 280 283 284 284 287 288 289 289 290 290 289 288 287 287 287 288 287 286 284 281 278 274 272 271 270 268 267 265 264 263 260 257 257 259 258 256 255 257 253 243 236 233 232 232 228 226 228 229 226 222 221 220 218 216 215 215
270 273 275 276 277 279 281 282 284 285 286 287 288 288 288 287 288 288 287 286 286 286 286 286 286 284 282 278 274 271 270 270 268 265 264 264 261 258 258 259 259 259 257 254 255 253 243 234 233 232 229 227 226 226 229 228 223 223 223 220 217 216 215
273 274 275 276 277 282 286 287 287 285 286 286 288 290 290 289 289 289 289 289 290 289 288 288 287 284 281 278 274 271 268 268 268 266 266 267 265 260 258 259 260 259 257 253 251 250 243 234 231 230 227 225 224 224 226 226 223 223 223 221 218 218 215
272 273 276 280 282 284 286 286 286 285 285 286 288 290 292 293 293 293 292 292 292 292 291 291 289 286 284 281 276 271 267 267 267 266 265 268 268 263 257 255 257 258 254 252 252 249 245 241 234 230 228 223 215 216 223 225 223 221 221 220 218 218 216
270 272 277 280 281 282 284 284 284 284 284 286 287 290 292 294 295 294 293 293 294 294 295 295 293 291 289 285 279 273 269 267 266 264 262 264 265 261 254 251 254 256 252 252 255 251 248 247 239 230 229 225 217 210 214 221 224 221 221 221 219 217 216
272 275 276 277 278 279 280 281 281 283 284 287 290 293 294 294 294 293 293 295 297 298 300 302 300 295 291 286 279 275 273 270 267 264 261 263 262 255 249 247 250 255 256 255 256 252 250 250 241 229 225 228 227 220 214 216 221 221 220 221 219 216 214
271 272 271 274 277 278 280 281 283 287 290 293 296 297 298 296 293 292 295 300 302 301 303 307 306 300 294 288 280 275 274 270 267 265 263 264 261 255 252 249 243 245 251 259 259 254 249 249 241 227 224 227 230 234 233 225 223 223 220 220 220 216 212
263 267 272 278 281 282 285 287 289 292 295 297 299 299 298 296 294 295 298 304 305 303 303 306 307 305 300 294 287 278 272 269 267 266 265 264 259 257 259 257 247 238 236 249 259 254 245 244 241 230 227 230 230 235 240 235 231 230 226 222 220 215 212
265 273 280 283 284 286 289 293 295 296 297 299 299 300 300 298 299 301 303 306 309 307 305 304 306 307 303 298 293 285 275 271 270 267 265 263 259 259 259 258 254 242 232 237 249 250 244 241 243 238 234 234 231 231 235 234 235 237 235 231 225 217 212
271 275 278 280 283 289 295 299 300 302 304 305 305 305 304 303 305 307 307 307 310 311 308 306 307 309 306 300 295 288 278 271 271 271 268 263 262 263 261 257 253 245 236 235 241 245 244 240 240 239 236 232 228 230 232 233 237 239 239 235 226 219 213
263 268 271 275 284 292 297 300 303 307 308 309 308 307 307 309 311 313 312 309 309 312 312 309 310 311 308 302 296 289 279 270 270 274 274 269 265 263 261 256 251 245 242 239 238 240 241 237 235 235 233 228 227 231 234 235 239 241 241 235 222 215 212
263 268 271 279 291 297 298 301 305 309 310 310 309 307 309 315 318 318 315 312 312 313 314 312 314 315 309 302 297 290 280 272 272 278 281 277 269 265 265 261 252 245 245 245 242 241 239 236 233 231 230 228 229 233 236 236 238 239 240 236 222 214 212
270 280 285 293 302 301 301 305 306 309 313 316 314 311 314 320 323 320 314 313 315 317 318 318 318 318 315 309 302 292 285 281 281 286 287 278 269 267 269 268 260 251 250 249 246 242 238 235 233 230 230 231 232 237 239 237 236 237 238 234 224 217 215
276 295 307 312 310 307 308 309 310 314 319 323 321 317 317 322 327 324 317 316 319 321 322 323 322 321 321 321 314 305 302 303 304 304 298 284 273 271 270 268 264 257 252 249 246 243 239 235 234 233 234 236 237 239 240 238 235 236 236 232 224 218 216
283 306 319 316 315 316 316 316 318 322 325 328 326 319 317 320 325 328 327 324 322 322 323 324 327 326 324 328 327 318 316 322 327 330 327 309 284 271 265 264 264 258 251 247 244 244 242 238 237 238 238 240 239 238 238 238 234 234 235 232 225 218 215
269 309 316 321 325 326 327 328 329 333 336 336 333 328 326 327 328 330 333 332 329 327 326 328 332 335 338 344 343 331 322 325 336 345 342 326 298 275 264 262 266 264 256 252 247 245 244 242 242 244 244 244 240 235 236 237 234 232 231 226 222 219 216
112 18 339 341 346 349 356 0 0 0 357 352 347 342 343 343 337 334 335 336 334 334 338 341 342 347 355 358 354 343 330 323 328 333 328 320 308 292 270 257 260 263 261 258 252 248 248 247 247 249 248 245 239 235 235 236 233 230 225 221 219 219 217
81 32 12 20 29 31 32 29 22 16 8 2 356 351 349 347 341 338 337 337 339 345 353 358 0 3 7 5 1 355 347 337 328 318 314 315 311 303 285 266 262 264 265 264 258 254 251 247 248 251 250 246 242 239 237 234 230 227 225 222 220 218 214
76 64 59 57 55 50 45 40 34 31 28 23 17 9 3 356 348 347 349 353 4 13 17 21 23 20 16 14 9 3 359 357 350 335 328 322 309 302 296 284 277 274 272 270 268 265 255 247 247 251 252 250 245 242 241 238 233 229 227 226 223 219 215
96 86 76 69 64 58 53 49 46 46 45 40 36 34 31 25 21 19 21 29 38 39 37 36 33 28 26 25 19 11 8 9 9 359 348 344 332 318 309 301 296 288 276 266 265 265 257 249 246 246 247 248 245 242 242 244 243 237 232 228 225 224 223
106 94 83 75 70 65 59 54 52 52 50 46 43 45 46 44 44 44 47 54 58 55 50 45 41 35 32 32 26 19 16 16 16 7 355 352 350 338 325 317 310 300 278 253 249 254 252 247 242 238 236 237 240 243 242 244 248 246 240 234 230 231 232
109 98 88 79 73 69 63 59 58 57 55 52 52 55 56 55 56 59 65 73 75 71 64 57 54 50 45 43 39 33 28 23 19 10 358 353 351 344 336 332 330 325 306 265 249 248 245 239 236 231 228 228 230 235 237 238 242 247 247 243 240 240 237
113 101 90 82 75 71 67 67 68 66 63 63 64 65 65 64 66 70 73 74 75 76 73 67 63 62 59 57 56 53 50 45 40 32 17 1 352 347 343 340 338 340 333 305 268 255 246 237 231 225 225 227 224 226 232 236 238 244 247 245 244 245 241
117 104 93 85 78 74 72 73 75 71 70 72 73 73 74 74 75 77 76 74 73 74 73 68 64 61 58 56 55 55 54 52 50 47 40 27 11 8 11 5 0 359 351 333 305 279 259 248 242 233 228 226 224 226 235 240 240 241 242 241 241 246 245
115 105 95 86 80 77 76 77 77 75 76 81 82 81 81 82 83 83 79 75 72 72 70 66 60 53 49 47 47 48 49 51 53 54 50 44 37 38 40 31 21 15 8 4 11 14 339 284 258 237 224 216 219 230 233 234 232 228 231 237 240 243 244
111 105 99 89 83 81 80 80 81 82 85 89 90 87 85 87 87 85 79 73 70 70 69 63 55 46 42 41 40 41 43 48 54 58 57 55 53 53 51 45 36 31 29 28 30 33 21 356 316 200 196 191 196 205 186 166 185 196 203 217 225 230 234
113 110 104 94 87 84 82 82 83 85 87 90 92 91 90 91 89 82 76 72 70 70 69 64 56 49 44 41 41 46 50 52 59 64 65 65 64 63 61 56 49 45 46 44 40 43 34 19 46 132 144 157 158 143 120 118 134 149 159 176 190 204 214
115 113 107 98 91 87 85 84 85 87 88 90 95 97 97 97 91 81 75 72 71 70 67 63 57 53 51 50 52 57 59 60 66 72 72 69 68 67 66 62 56 52 54 55 55 57 52 44 63 91 99 106 107 98 94 102 117 133 146 153 159 171 181
113 111 107 102 96 92 90 91 92 93 94 94 98 99 99 98 93 85 79 74 71 68 64 62 60 58 58 59 60 62 61 63 70 75 74 71 70 69 68 67 64 61 62 65 63 61 60 57 62 68 67 66 70 72 75 78 84 106 130 134 138 152 160
111 111 109 106 102 99 99 99 100 100 101 100 100 98 96 94 91 86 82 77 73 69 65 63 62 60 60 59 58 57 58 64 71 73 73 71 72 72 72 72 74 72 72 72 67 60 59 58 57 56 55 57 62 64 64 62 61 67 80 90 101 114 124
112 113 113 111 108 107 107 106 106 106 107 106 103 100 96 93 89 86 83 79 77 73 70 67 64 62 60 59 57 56 60 66 69 70 72 71 70 71 73 75 78 78 77 74 68 64 63 59 57 57 57 59 60 56 51 51 49 46 49 51 51 52 56
114 115 117 117 116 115 114 113 111 109 108 106 103 100 97 94 92 90 87 83 80 77 73 69 65 63 62 61 62 63 64 67 68 68 70 71 69 69 69 71 73 73 70 67 67 69 70 65 64 66 65 61 57 50 43 41 37 33 33 34 32 34 40
116 117 119 121 120 117 116 113 110 106 104 102 100 98 95 93 92 90 87 84 82 78 75 72 69 66 64 64 64 64 65 65 65 67 70 71 70 68 66 66 66 65 63 64 67 69 70 68 67 68 65 60 56 50 43 40 36 32 30 32 34 38 44